Kalaeloa, HI

10:36 PM HST on May 26, 2017 (GMT -1000)
Kalaeloa (John Rodgers Field)

Weather History for PHJR - August, 2014

Change the Weather History Date:

Saturday, August 30, 2014

  Actual Average (PHHI) Record (PHHI)
Temperature  
Mean Temperature 80 °F -  
Max Temperature 89 °F 81 °F 86 °F (2002)
Min Temperature 71 °F 68 °F 64 °F (2005)
Cooling Degree Days 15    
Growing Degree Days 30 (Base 50)    
Moisture  
Dew Point 67 °F    
Average Humidity 70    
Maximum Humidity 87    
Minimum Humidity 42    
Precipitation  
Precipitation 0.00 in - - ()
Sea Level Pressure  
Sea Level Pressure 29.96 in    
Wind  
Wind Speed 2 mph (NE)    
Max Wind Speed 13 mph    
Max Gust Speed -    
Visibility 10 miles    
Events      
Averages and records for this station are not official NWS values.
T = Trace of Precipitation, MM = Missing Value Source: NWS Daily Summary

Daily Weather History Graph

Daily Weather History Graph

Search for Another Location

Airport or City:

Trip Planner

Search our weather history database for the weather conditions in past years. The results will help you decide how hot, cold, wet, or windy it might be!

Date:

Astronomy

Aug. 30, 2014 Rise Set
Actual Time 6:15 AM HST 6:49 PM HST
Civil Twilight 5:52 AM HST 7:12 PM HST
Nautical Twilight 5:26 AM HST 7:38 PM HST
Astronomical Twilight 4:59 AM HST 8:05 PM HST
Moon 10:33 AM HST (8/30) 10:14 PM HST (8/30)
Length of Visible Light 13h 19m
Length of Day
12h 34m
Waxing Crescent, 25% of the Moon is Illuminated
Aug 30
Waxing Crescent
Sep 2
First Quarter
Sep 8
Full
Sep 15
Last Quarter
Sep 23
New

Hourly Weather History & Observations

Time (HST) Temp. Heat Index Dew Point Humidity Pressure Visibility Wind Dir Wind Speed Gust Speed Precip Events Conditions
12:53 AM 71.1 °F - 66.9 °F 87% 29.96 in 10.0 mi Calm Calm - N/A   Clear
1:53 AM 71.1 °F - 66.9 °F 87% 29.94 in 10.0 mi Calm Calm - N/A   Clear
2:44 AM 71.6 °F - 66.2 °F 83% 29.91 in 10.0 mi Calm Calm - N/A   Partly Cloudy
2:53 AM 71.1 °F - 66.9 °F 87% 29.94 in 10.0 mi NE 3.5 mph - N/A   Partly Cloudy
3:53 AM 72.0 °F - 66.9 °F 84% 29.93 in 10.0 mi Calm Calm - N/A   Clear
4:53 AM 72.0 °F - 66.9 °F 84% 29.94 in 10.0 mi Calm Calm - N/A   Mostly Cloudy
5:53 AM 72.0 °F - 68.0 °F 87% 29.95 in 10.0 mi Calm Calm - N/A   Overcast
6:53 AM 73.9 °F - 69.1 °F 85% 29.96 in 10.0 mi Calm Calm - N/A   Mostly Cloudy
7:53 AM 79.0 °F - 70.0 °F 74% 29.99 in 10.0 mi Calm Calm - N/A   Partly Cloudy
8:53 AM 82.9 °F 85.8 °F 68.0 °F 60% 30.00 in 10.0 mi Calm Calm - N/A   Partly Cloudy
9:53 AM 86.0 °F 89.4 °F 68.0 °F 55% 30.00 in 10.0 mi Variable 3.5 mph - N/A   Mostly Cloudy
10:53 AM 87.1 °F 88.9 °F 64.9 °F 48% 29.99 in 10.0 mi Variable 5.8 mph - N/A   Clear
11:53 AM 89.1 °F 90.0 °F 63.0 °F 42% 29.97 in 10.0 mi East 8.1 mph - N/A   Partly Cloudy
12:53 PM 84.0 °F 87.8 °F 69.1 °F 61% 29.97 in 10.0 mi WNW 12.7 mph - N/A   Overcast
1:53 PM 86.0 °F 89.4 °F 68.0 °F 55% 29.95 in 10.0 mi Calm Calm - N/A   Mostly Cloudy
2:53 PM 84.0 °F 88.4 °F 70.0 °F 63% 29.94 in 10.0 mi SW 9.2 mph - N/A   Mostly Cloudy
3:53 PM 82.9 °F 86.5 °F 69.1 °F 63% 29.93 in 10.0 mi SW 8.1 mph - N/A   Overcast
4:53 PM 82.9 °F 85.4 °F 66.9 °F 58% 29.93 in 10.0 mi ENE 8.1 mph - N/A   Mostly Cloudy
5:53 PM 82.9 °F 84.6 °F 64.9 °F 54% 29.94 in 10.0 mi Variable 3.5 mph - N/A   Partly Cloudy
6:53 PM 81.0 °F 83.3 °F 66.9 °F 62% 29.96 in 10.0 mi Variable 3.5 mph - N/A   Clear
7:53 PM 78.1 °F - 66.9 °F 68% 29.98 in 10.0 mi Calm Calm - N/A   Clear
8:53 PM 77.0 °F - 68.0 °F 74% 29.99 in 10.0 mi Calm Calm - N/A   Clear
9:53 PM 75.0 °F - 66.9 °F 76% 30.01 in 10.0 mi Calm Calm - N/A   Clear
10:53 PM 75.9 °F - 68.0 °F 76% 30.00 in 10.0 mi Calm Calm - N/A   Mostly Cloudy
11:53 PM 73.9 °F - 68.0 °F 82% 29.99 in 10.0 mi Calm Calm - N/A   Clear